STARLINK-1095

decayed
NORAD ID: 44971 Int'l Des: 2020-001 Owner: SPXS Country: US Constellation: starlink
LEOCIRCULAR
Gruppe

Über STARLINK-1095

Beschreibung wird geladen...

Höhenverlauf

Altitude vs Time

uPlot chart will show altitude changes over time

Zweizeiliger Elementsatz

1 44971U 20001BK 21262.80825689 .18035194 12370-4 22980-2 0 9998
2 44971 53.0050 16.1756 0010582 324.9792 175.5924 16.34923731 95217
Epoch: 19. Sept. 2021 • Age: 35020 hours

Aktueller Status

Position data unavailable
Startdatum 7. Jan. 2020
Alter 5.6 years
Verglühungsdatum 20. Sept. 2021
Typ internet

Technische Details

Klassifizierung Payload
Masse 260.00 kg
Trockenmasse 248.00 kg
Gesamtmasse 260.00 kg
Länge 0.20 m
Durchmesser 2.80 m
Spannweite 9.00 m
Form Box + pan
Hersteller SPXS
Bus-Typ Starlink
Phasenstatus Reentered
Besitzer/Staat SPXS/US

Große Konstellationen

Loading constellations...